Meteo Giornale » Osservazioni meteo Olanda » Vlissingen

ore: 20:55 - Osservazioni Meteo Vlissingen
Lat. 51° 26' N Lon. 3° 36' E Alt. 10 metri s.l.m.

sereno

19 °C

Sereno

Temp. 24 Ore

17 °C

20 °C

Ovest/Sud-Ovest

20.3 Km/h

Dew point 12 °C

Umidità 63 %

Visibilità  10 Km

Il sole sorge alle ore 06:58

Il sole tramonta alle ore 20:32

Data e Ora Cielo e Fenomeni T °C DP °C Um. % Pres. hPa Vis. km Vento km/h
Oggi h: 20:55 sereno Sereno 19 12 63 1020 10 O/SO 20.3
Oggi h: 20:25 sereno Sereno 19 12 63 1020 10 O 16.7
Oggi h: 19:55 sereno Sereno 19 11 59 1020 10 O 16.7
Oggi h: 19:25 sereno Sereno 19 11 59 1020 10 O 18.5
Oggi h: 18:55 sereno Sereno 19 12 63 1020 10 O 18.5
Oggi h: 18:25 sereno Sereno 20 12 59 1020 10 O 18.5
Oggi h: 17:55 sereno Sereno 20 12 59 1020 10 O/NO 18.5
Oggi h: 17:25 sereno Sereno 20 12 59 1020 10 O/NO 18.5
Oggi h: 16:55 sereno Sereno 20 12 59 1020 10 O 20.3
Oggi h: 16:25 sereno Sereno 20 12 59 1020 10 O 18.5
Oggi h: 15:55 sereno Sereno 20 12 59 1020 10 O 20.3
Oggi h: 15:25 sereno Sereno 20 12 59 1020 10 O 20.3
Oggi h: 14:55 sereno Sereno 20 12 59 1020 10 O 22.2
Oggi h: 14:25 poco_nuvoloso Poco Nuvoloso 20 12 59 1020 10 O 20.3
Oggi h: 13:55 sereno Sereno 20 13 64 1020 10 O 18.5
Oggi h: 13:25 sereno Sereno 20 12 59 1020 10 O 20.3
Oggi h: 12:55 sereno Sereno 20 12 59 1020 10 O 20.3
Oggi h: 12:25 sereno Sereno 20 12 59 1020 10 O 18.5
Oggi h: 11:55 sereno Sereno 20 12 59 1020 10 O 20.3
Oggi h: 11:25 poco_nuvoloso Poco Nuvoloso 19 13 68 1020 10 O 16.7
Oggi h: 10:55 sereno Sereno 19 12 63 1020 10 O 16.7
Oggi h: 10:25 molto_nuvoloso Molto Nuvoloso 19 13 68 1020 10 O/NO 14.8
Oggi h: 09:55 nuvoloso Nuvoloso 19 13 68 1019 10 O/NO 14.8
Oggi h: 09:25 nuvoloso Nuvoloso 19 13 68 1019 10 NO 11.1
Oggi h: 08:55 molto_nuvoloso Molto Nuvoloso 18 13 72 1019 10 NO 9.3
Oggi h: 08:25 molto_nuvoloso Molto Nuvoloso 17 13 77 1019 10 NO 7.4
Oggi h: 07:55 molto_nuvoloso Molto Nuvoloso 17 13 77 1018 10 NO 9.3
Oggi h: 07:25 molto_nuvoloso Molto Nuvoloso 18 13 72 1018 10 NO 9.3
Oggi h: 06:55 nuvoloso Nuvoloso 18 14 77 1018 10 NO 13
Oggi h: 06:25 coperto Coperto 18 14 77 1018 10 NO 11.1
Oggi h: 05:55 poco_nuvoloso Poco Nuvoloso 18 14 77 1017 10 NO 11.1
Oggi h: 05:25 nuvoloso Nuvoloso 18 14 77 1017 10 NO 11.1
Oggi h: 04:55 sereno Sereno 18 15 82 1017 10 NO 16.7
Oggi h: 04:25 coperto Coperto 19 16 82 1017 10 O 13
Oggi h: 03:55 molto_nuvoloso Molto Nuvoloso 18 17 93 1017 10 O/SO 20.3
Oggi h: 03:25 molto_nuvoloso Molto Nuvoloso 18 16 88 1017 10 SO 20.3
Oggi h: 02:55 nuvoloso Nuvoloso 18 17 93 1017 10 SO 27.8
Oggi h: 02:25 sereno Sereno 18 17 93 1017 10 SO 24
Oggi h: 01:55 sereno Sereno 18 17 93 1017 10 SO 24
Oggi h: 01:25 sereno Sereno 18 16 88 1017 10 SO 24
Oggi h: 00:55 molto_nuvoloso Molto Nuvoloso 18 17 93 1017 10 SO 29.6
Oggi h: 00:25 nuvoloso Nuvoloso 18 17 93 1017 10 SO 27.8
Ieri h: 23:55 molto_nuvoloso Molto Nuvoloso 19 17 88 1016 10 SO 27.8
Ieri h: 23:25 nuvoloso Nuvoloso 18 17 93 1016 10 SO 29.6
Ieri h: 22:55 sereno Sereno 19 17 88 1016 10 SO 29.6
Ieri h: 22:25 sereno Sereno 19 17 88 1016 10 SO 29.6
Ieri h: 21:55 nuvoloso Nuvoloso 19 16 82 1015 10 SO 29.6